NOAA NWS Hourly Roundups by Site

Regional Weather Roundup for Omaha, NE

To Select Another Site Choose from List

Select Site:  

000
ASUS43 KOAX 182303
RWRNE

WEATHER ROUNDUP FOR NEBRASKA
NATIONAL WEATHER SERVICE OMAHA NE
500 PM CST MON JAN 18 2021

NOTES: SATELLITE DATA IS BEING USED TO AUGMENT CLOUD COVER ABOVE
       12000 FEET.
       "FAIR" INDICATES FEW OR NO CLOUDS BELOW 12,000 FEET WITH NO
       SIGNIFICANT WEATHER AND/OR OBSTRUCTIONS TO VISIBILITY.


NEZ001>004-019>022-054>056-190000-
NEBRASKA PANHANDLE

CITY           SKY/WX    TMP DP  RH WIND       PRES   REMARKS
SCOTTSBLUFF    MOCLDY    37  14  38 NW24G38   30.08R WCI  26
ALLIANCE       CLEAR     35  18  49 NW25G43   30.04R WCI  23
CHADRON        CLOUDY    38  15  39 N22G29    30.10R WCI  27
GORDON         CLOUDY    30  25  82 N25G32    30.05R WCI  15
KIMBALL        MOCLDY    33  27  78 NW14      30.07R WCI  23
SIDNEY         PTCLDY    36  22  56 NW22G30   30.04R WCI  25
$$

NEZ057>060-069>072-079>082-190000-
SOUTHWEST NEBRASKA

CITY           SKY/WX    TMP DP  RH WIND       PRES   REMARKS
NORTH PLATTE   MOCLDY    41  27  57 N23G36    30.01R
IMPERIAL       MOCLDY    44  17  33 NW23G33   30.03R
LEXINGTON      CLOUDY    42  30  60 W6        29.99R
MCCOOK         MOCLDY    44  25  47 NW9       30.02R
OGALLALA       PTCLDY    43  19  37 NW23G32   30.03R
$$

NEZ005>010-023>029-035>040-094-190000-
NORTH CENTRAL NEBRASKA

CITY           SKY/WX    TMP DP  RH WIND       PRES   REMARKS
VALENTINE      LGT SNOW  35  29  78 NW21G31   30.01R WCI  24
AINSWORTH      CLOUDY    36  29  78 NW23      29.99R WCI  24
BROKEN BOW     LGT RAIN  36  32  85 NW12      29.99R WCI  28
O`NEILL        LGT SNOW  33  32  95 CALM      29.97R
ORD            CLOUDY    41  26  55 NW13G22   29.98R
THEDFORD       LGT SNOW  38  30  73 NW26G37   30.01R WCI  27
$$

NEZ041-046>049-061>064-073>077-083>087-190000-
SOUTH CENTRAL NEBRASKA

CITY           SKY/WX    TMP DP  RH WIND       PRES   REMARKS
GRAND ISLAND   CLEAR     42  25  50 NW3       30.00R
AURORA           N/A    N/A N/A N/A MISG        N/A
HASTINGS       CLEAR     42  26  53 N5        30.02R
HEBRON         CLEAR     42  27  56 N7        30.03R
HOLDREGE       CLEAR     44  25  48 CALM      30.00R
KEARNEY        CLEAR     42  25  50 CALM      30.00R
YORK           CLEAR     37  28  70 CALM      30.02R
$$

NEZ011>018-030>034-042>045-190000-
NORTHEAST NEBRASKA

CITY           SKY/WX    TMP DP  RH WIND       PRES   REMARKS
NORFOLK        CLOUDY    37  27  67 CALM      29.99R
ALBION         PTCLDY    37  28  71 SE3       29.98R
BLAIR          CLOUDY    35  26  71 CALM      30.03R
COLUMBUS       MOCLDY    36  29  75 CALM      30.02R
FREMONT        MOCLDY    36  29  76 CALM      30.03R
TEKAMAH        MOCLDY    34  27  75 SE3       30.03R
WAYNE          CLOUDY    34  28  78 SW5       30.00R WCI  30
$$

NEZ050>053-065>068-078-088>093-190000-
SOUTHEAST NEBRASKA

CITY           SKY/WX    TMP DP  RH WIND       PRES   REMARKS
LINCOLN        CLEAR     38  28  67 N3        30.05R
OMAHA EPPLEY   PTCLDY    35  26  69 N5        30.04R WCI  31
BEATRICE       CLOUDY    39  31  73 N7        30.03R WCI  34
FALLS CITY     CLOUDY    38  30  73 NE6       30.02R WCI  33
NEBRASKA CITY  CLEAR     32  31  95 N6        30.03R WCI  27
PLATTSMOUTH    CLEAR     35  27  72 CALM      30.04R
$$

NEZ044-045-051>053-067-190000-
OMAHA AREA

CITY           SKY/WX    TMP DP  RH WIND       PRES   REMARKS
OMAHA EPPLEY   PTCLDY    35  26  69 N5        30.04R WCI  31
BLAIR          CLOUDY    35  26  71 CALM      30.03R
FREMONT        MOCLDY    36  29  76 CALM      30.03R
MILLARD        PTCLDY    37  26  63 CALM      30.04R
OFFUTT AFB     CLEAR     35  26  69 CALM      30.04R
PLATTSMOUTH    CLEAR     35  27  72 CALM      30.04R
WAHOO          CLOUDY    37  30  78 CALM      30.04R
$$


 

View Past Reports for Omaha, NE.

Products Courtesy of NOAA-NWS
NWS Information Parsing Script by Ken True at Saratoga Weather - Script by SE Lincoln Weather.